sat.trackr.live / text

‹ back to catalog

STARLINK-32441

NORAD 61668 · 2024-193H

PAYLOAD ACTIVE UNKNOWN

§ Identity

Operator
Country
US
Launch date
2024-10-26
Launch site
AFETR
Launch vehicle
Mass (kg)
RCS (m²)

Purposes: comms

External: N2YO · Heavens-Above · Gunter

§ Orbital elements

Epoch: 2026-09-21T03:39:41.445792Z

Period
93.85 min
Inclination
53.1603°
Eccentricity
0.0001233
Mean motion
15.34393627 rev/d
Perigee alt
461.9 km
Apogee alt
463.6 km
Semi-major
6,840.9 km
B*
4.7807e-5
RAAN
262.3406°
Arg perigee
82.7216°
Mean anomaly
277.3926°
Rev number
10,646

§ Raw data

STARLINK-324411 61668U 24193H   26264.15256303  .00001239  00000+0  47807-4 0  99952 61668  53.1603 262.3406 0001233  82.7216 277.3926 15.34393627106461

JSON: /api/v1/satellites/61668 · /tle

For live sub-satellite position, see the globe view (requires WebGL).

§ Visibility from observer

Set your observer location to see the next 7 days of passes ≥ 10°. The values pass through the URL so the page stays shareable.

No JS? Fill the form by hand. The geolocation button needs JavaScript.